Regional Weather Roundup
Issued by NWS

Home | Current Version | Previous Version | Text Only | Print | Product List | Glossary Off
Versions: 1 2 3 4 5 6 7 8 9 10 11 12 13 14 15 16 17 18 19 20 21 22 23 24 25 26 27 28 29 30 31 32 33 34 35 36 37 38 39 40 41 42 43 44 45 46 47 48 49 50

063
ASUS44 KLIX 221310
RWRLA
LOUISIANA WEATHER ROUNDUP
NATIONAL WEATHER SERVICE NEW ORLEANS LA
700 AM CST SAT NOV 22 2014

NOTE: "FAIR" INDICATES FEW OR NO CLOUDS BELOW 12,000 FEET WITH NO
      SIGNIFICANT WEATHER AND/OR OBSTRUCTIONS TO VISIBILITY.
      SKY/WX - SKY CONDITION AND SIGNIFICANT WEATHER.
      TMP - AIR TEMPERATURE.    DP   - DEWPOINT TEMPERATURE.
      RH  - RELATIVE HUMIDITY.  PRES - PRESSURE.
      HX  - HEAT INDEX.         WCI  - WIND CHILL INDEX.

*  THESE STATIONS ARE NOT NWS OR FAA STATIONS AND ARE NOT UNDER
   NWS QUALITY CONTROL.

LAZ040-048-061>063-065-066-069-221400-
SOUTHEAST LOUISIANA

CITY           SKY/WX    TMP DP  RH WIND       PRES   REMARKS
N.O. AUDUBON     N/A     58  52  81 MISG        N/A
N.O. INTL ARPT PTCLDY    56  51  84 E6        30.21R
N.O. LAKEFRONT CLEAR     57  51  80 E13       30.22R
N.O. DOWNTOWN* FAIR      57  48  72 NE7       30.22R
SLIDELL        CLEAR     51  46  83 NE3       30.23R
BATON ROUGE    CLEAR     50  47  89 NE6       30.22R
BOOTHVILLE     CLEAR     61  58  90 E6        30.20S
BELLE CHASSE   PTCLDY    56  51  84 NE10      30.21R
BOGALUSA*        N/A     44  42  91 N3        30.26S FOG
NEW ROADS*     FAIR      53  48  84 E5        30.21S
GONZALES*      FAIR      53  53  98 NE3       30.21R
HAMMOND*       CLEAR     54  46  76 CALM      30.24R
HOUMA*         NOT AVBL
PORT FOURCHON* MOSUNNY   63  59  88 NE9       30.21R

$$

LAZ041-044-053-054-221400-
SOUTHWEST LOUISIANA

CITY           SKY/WX    TMP DP  RH WIND       PRES   REMARKS
LAKE CHARLES   MOCLDY    54  51  90 E9        30.14F
LAFAYETTE      MOCLDY    56  51  84 E3        30.19F
PATTERSON      MOCLDY    55  52  88 NE7       30.21R
SALT POINT       N/A     58  53  84 VRB3      30.17R
NEW IBERIA     CLOUDY    57  52  83 MISG      30.19F
CHENAULT AIRPK PTCLDY    54  52  94 E8        30.15F

$$

LAZ027-028-221400-
CENTRAL LOUISIANA

CITY           SKY/WX    TMP DP  RH WIND       PRES   REMARKS
FORT POLK      PTCLDY    55  50  86 E7        30.16F
ALEXANDRIA INT PTCLDY    54  50  86 SE9       30.18S
ALEXANDRIA     CLEAR     53  50  89 E3        30.20S

$$

LAZ001-002-221400-
NORTHWEST LOUISIANA

CITY           SKY/WX    TMP DP  RH WIND       PRES   REMARKS
SHREVEPORT     MOCLDY    56  52  86 SE9       30.14F
BARKSDALE AFB  CLOUDY    57  51  82 SE10      30.15F
DTN SHREVEPORT MOCLDY    57  50  77 SE12      30.15F

$$

LAZ014-016-221400-
NORTHEAST LOUISIANA

CITY           SKY/WX    TMP DP  RH WIND       PRES   REMARKS
MONROE         CLOUDY    56  51  84 E5        30.23S
TALLULAH       MOCLDY    54  46  74 SE8       30.25S

$$




USA.gov is the U.S. government's official web portal to all federal, state and local government web resources and services.